Regional Weather Roundup
Issued by NWS

Home | Current Version | Previous Version | Graphics & Text | Print | Product List | Glossary On
Versions: 1 2 3 4 5 6 7 8 9 10 11 12 13 14 15 16 17 18 19 20 21 22 23 24 25 26 27 28 29 30 31 32 33 34 35 36 37 38 39 40 41 42 43 44 45 46 47 48 49 50
000
ASUS43 KFSD 171310
RWRSD

WEATHER ROUNDUP FOR SOUTH DAKOTA
NATIONAL WEATHER SERVICE SIOUX FALLS SD
700 AM CST WED DEC 17 2014

NOTE: "FAIR" INDICATES FEW OR NO CLOUDS BELOW 12,000 FEET WITH NO
SIGNIFICANT WEATHER AND/OR OBSTRUCTIONS TO VISIBILITY.


SDZ001>005-009-010-012>017-171400-
NORTHWEST AND NORTH CENTRAL SOUTH DAKOTA

CITY           SKY/WX    TMP DP  RH WIND       PRES   REMARKS
BUFFALO          N/A     17  14  88 SE15      30.00R WCI   2
FAITH            N/A     16  13  88 SE15      30.14S WCI   1
MOBRIDGE       CLOUDY    16  11  80 SE9       30.24S WCI   4
$$

SDZ012>016-024>037-041>051-057-063-072>074-171400-
SOUTHWEST AND SOUTH CENTRAL SOUTH DAKOTA

CITY           SKY/WX    TMP DP  RH WIND       PRES   REMARKS
RAPID CTY ARPT CLOUDY    19  17  92 SE7       30.05S WCI  10
PIERRE         CLOUDY    16  13  88 SE12      30.25S WCI   3
CUSTER         PTCLDY    19  15  84 NW3       29.90F
ELLSWORTH AFB  CLOUDY    19  17  92 SE8       30.04S WCI   9
PHILIP         CLOUDY    18  15  88 SE13      30.17F WCI   5
PINE RIDGE     CLOUDY    23  19  85 S6        30.04F WCI  16
SPEARFISH      CLOUDY    16  14  93 S5        29.99F FOG     WCI   9
WINNER         CLOUDY    19  15  84 SE10      30.24S WCI   7
$$

SDZ004>011-016>023-039-040-171400-
NORTHEAST SOUTH DAKOTA

CITY           SKY/WX    TMP DP  RH WIND       PRES   REMARKS
ABERDEEN       CLEAR      4   0  83 N5        30.33F WCI  -5
WATERTOWN      PTCLDY     0  -2  91 CALM      30.29R
SISSETON         N/A      1  -3  83 NW7       30.35R WCI -12
$$

SDZ017-020-022-023-036>040-048>070-171400-
SOUTHEAST SOUTH DAKOTA

CITY           SKY/WX    TMP DP  RH WIND       PRES   REMARKS
SIOUX FALLS    PTCLDY     2  -3  80 N7        30.31S WCI -11
HURON          CLOUDY     0  -3  87 W3        30.34R
CHAMBERLAIN    CLOUDY    16  13  89 SE5       30.29S WCI   8
MITCHELL       MOCLDY     3   0  87 SW3       30.35R
YANKTON        PTCLDY     9   5  85 CALM      30.35S
$$

ABBREVIATIONS USED IN REMARKS
   TC - TEMPERATURE IN CELSIUS
  WCI - WIND CHILL INDEX
   HX - HEAT INDEX
  VSB - VISIBILITY



USA.gov is the U.S. government's official web portal to all federal, state and local government web resources and services.